Temperature
16 16 16 17 14 11 13 14 14 14 14 14 14 14 14 14 14 15 14 14 14 14 14 14 14 14 14 14 14 14 14 14 14 14 14 14 14 14 14 14 15 14 14 14 14 14 14 14 14
15 16 16 16 12 12 13 13 13 14 14 14 14 13 13 13 13 13 14 14 14 14 14 14 14 14 14 14 14 14 14 14 14 14 14 14 14 14 14 14 14 14 14 14 14 14 14 14 14
15 16 16 11 12 12 14 14 13 13 14 14 13 13 12 12 13 13 13 13 14 14 14 14 14 14 14 14 14 13 14 14 14 14 14 14 14 14 14 14 14 14 14 14 14 14 14 14 14
15 15 14 11 12 12 13 13 13 12 13 13 12 12 12 12 13 13 13 13 13 13 13 13 13 13 13 13 13 13 13 13 13 13 14 14 14 14 14 14 14 14 14 14 14 14 14 14 14
15 14 11 11 12 12 12 13 13 13 12 12 12 11 11 12 13 13 13 13 13 13 13 13 13 13 13 13 13 13 13 13 13 13 13 14 14 14 14 14 14 14 13 13 14 14 14 13 13
14 11 11 11 12 12 12 13 13 12 12 12 12 11 11 12 12 12 13 13 13 13 13 13 13 13 13 13 13 13 13 13 13 13 13 13 13 13 13 13 13 13 13 13 13 13 13 13 13
13 10 10 11 11 12 12 13 12 11 11 11 12 11 11 12 12 12 12 12 12 12 12 12 12 12 12 12 13 13 12 13 13 13 13 13 13 13 13 13 13 13 13 13 13 13 13 13 13
13 10 11 10 11 12 12 12 12 12 11 12 12 11 11 11 11 11 11 12 12 12 12 12 12 12 12 12 12 12 12 12 12 13 13 13 13 13 13 13 13 13 13 13 13 13 13 13 13
13 10 10 10 11 11 11 11 11 11 11 11 11 11 11 11 11 11 11 11 11 11 12 12 12 12 12 12 12 12 12 12 12 12 12 12 12 12 12 12 12 12 12 12 12 12 12 12 12
11 9 10 11 11 11 11 11 11 11 10 10 10 11 11 11 11 11 11 11 11 11 11 11 11 11 12 12 12 12 12 12 12 12 12 12 12 12 12 12 12 12 12 12 12 12 12 12 12
10 9 10 10 11 11 10 10 11 10 9 10 10 10 10 10 10 11 11 11 11 11 11 11 11 11 11 11 11 11 11 11 11 12 12 12 12 12 12 12 12 12 12 12 12 12 12 12 12
9 9 10 10 11 11 10 10 10 9 10 11 11 10 10 10 10 10 10 10 10 10 10 10 11 11 11 11 11 11 11 11 11 11 11 11 11 11 11 11 11 11 11 11 11 11 11 11 11
9 9 9 10 10 10 10 9 9 9 10 10 10 10 10 10 10 10 10 10 10 10 10 10 10 10 10 10 10 11 11 11 11 11 11 11 11 11 11 11 11 11 11 11 11 11 11 11 11
8 9 9 9 10 9 9 8 8 9 10 10 10 10 9 9 9 9 10 10 10 10 10 10 9 10 10 10 10 10 10 10 10 10 10 10 10 10 10 10 10 10 10 10 10 10 10 10 10
9 8 8 8 9 9 9 8 7 9 9 9 9 9 9 9 9 9 9 9 9 9 9 9 9 9 9 9 9 9 10 10 10 10 9 9 10 10 10 10 10 10 10 10 10 10 10 10 10
8 8 8 8 8 8 9 8 7 8 8 8 8 8 8 8 8 8 9 9 9 9 9 9 9 9 9 9 9 9 9 9 9 9 9 9 9 9 9 9 9 9 9 9 9 9 9 9 9
7 7 7 7 7 7 7 7 7 7 7 7 7 8 8 8 8 8 8 8 8 8 8 8 8 8 8 8 8 8 8 8 8 8 8 8 8 8 8 8 9 9 9 9 8 8 9 9 9
7 6 7 7 7 6 6 6 6 6 6 6 6 7 7 7 7 7 7 8 8 8 8 8 8 8 8 8 8 8 8 8 8 8 8 8 8 8 8 8 8 8 8 8 8 8 8 8 8
6 6 6 6 6 6 5 5 5 5 5 5 5 6 6 7 7 7 7 7 7 7 7 7 7 7 7 7 8 7 7 7 7 7 7 7 7 7 7 7 7 7 7 7 7 7 7 7 7
6 6 6 6 6 6 5 5 5 4 5 5 5 6 6 7 7 7 7 7 7 7 7 7 7 7 7 7 7 7 7 7 7 7 7 7 7 7 7 6 6 6 6 6 6 6 6 6 6
5 5 5 5 5 5 5 5 5 5 5 5 5 6 6 7 7 7 7 7 7 7 7 6 6 6 6 6 6 6 6 6 6 6 6 6 6 6 6 6 6 6 6 6 5 5 5 5 5
5 5 5 5 5 4 5 5 5 4 4 4 4 5 6 6 6 7 7 6 6 6 6 6 6 6 6 6 6 6 6 6 6 6 6 5 5 5 5 5 5 5 5 5 5 4 4 4 4
5 5 4 4 4 3 3 4 4 4 4 4 4 5 5 6 6 6 6 6 6 6 6 6 5 5 5 5 5 5 5 5 5 5 5 5 5 4 5 5 4 4 4 4 4 4 4 3 3
4 4 3 2 2 3 3 3 4 3 4 4 4 4 5 6 6 6 6 6 6 6 5 5 5 5 5 5 5 5 5 5 5 5 4 4 4 4 4 4 4 4 4 4 3 3 3 3 3
4 3 3 3 2 3 3 3 4 4 3 4 4 4 5 6 6 6 6 6 5 5 5 5 5 5 4 4 4 4 4 4 4 4 4 4 4 4 4 4 3 3 3 3 3 3 3 2 2
3 4 3 4 3 2 2 2 3 3 3 3 4 4 5 5 5 5 5 5 5 5 5 5 4 4 4 4 4 4 4 3 3 3 3 3 3 3 3 3 3 3 2 2 2 2 2 2 1
3 2 3 2 1 2 2 1 2 2 2 2 3 4 4 5 5 5 5 5 5 5 4 4 4 4 4 3 3 3 3 3 3 3 3 3 3 2 2 2 2 2 2 2 2 2 2 1 1
3 2 1 2 3 3 3 2 3 3 3 2 2 3 4 4 5 5 5 5 4 4 4 4 3 3 3 3 3 3 3 3 2 2 2 2 2 2 2 2 2 2 2 2 1 1 1 1 1
2 2 1 1 1 2 2 3 3 3 3 2 2 3 4 4 4 5 4 4 4 4 3 3 3 3 2 2 2 2 2 2 2 2 2 2 2 2 2 2 1 1 1 1 1 1 1 0 -0
1 1 1 2 1 -0 0 2 3 1 1 1 2 3 4 4 4 4 4 4 4 3 3 3 2 2 2 2 2 2 2 2 1 1 1 1 1 1 1 1 1 1 1 1 0 0 -0 -0 -1
Wind_Speed
8 5 2 4 5 4 2 3 2 1 0 1 1 2 4 3 2 2 1 2 2 1 3 5 6 8 9 10 10 9 10 10 10 12 12 12 12 12 12 11 11 11 11 11 11 11 11 12 12
4 3 5 5 4 1 4 4 3 2 2 2 3 3 3 1 1 1 2 2 2 3 4 5 7 8 9 10 10 10 10 10 10 11 11 11 11 11 12 11 11 11 11 11 12 11 11 11 11
2 4 4 4 3 5 4 3 3 0 2 2 2 3 2 1 1 1 2 1 3 4 5 6 8 9 10 10 11 10 10 10 10 11 11 11 11 11 11 11 10 10 10 11 11 11 11 11 11
3 5 5 3 3 4 3 2 2 1 2 3 3 2 1 2 1 1 1 2 5 5 5 6 8 9 10 10 10 10 10 10 11 11 11 10 10 11 11 11 10 10 10 10 10 11 10 10 10
4 4 3 0 3 3 3 2 2 1 1 2 2 2 0 2 3 3 3 4 5 5 6 6 7 9 9 10 10 9 10 10 10 10 10 10 10 11 11 10 10 10 10 10 10 10 10 10 10
4 4 3 3 4 3 2 1 1 1 1 1 3 3 1 2 4 3 4 5 6 6 6 6 7 8 8 9 9 9 10 10 10 10 10 10 10 10 10 10 9 9 9 8 8 9 9 10 10
4 4 4 4 3 3 2 0 2 2 1 2 3 4 1 1 2 3 4 5 6 7 7 7 6 7 7 8 9 9 9 10 9 9 9 9 9 9 10 9 9 9 9 8 8 8 8 9 9
4 4 3 4 4 4 1 1 1 2 2 1 3 4 3 2 2 4 5 6 6 6 6 7 7 7 7 8 8 9 9 9 9 9 10 10 10 10 10 9 9 8 8 8 8 8 8 8 9
3 3 5 6 6 4 1 2 1 1 3 1 1 1 1 4 5 5 5 5 5 5 5 6 7 8 8 8 8 9 9 10 10 10 10 10 9 9 9 9 9 8 8 8 8 8 9 8 8
3 4 6 4 4 3 2 2 2 2 1 0 1 2 4 5 6 6 4 4 3 3 3 4 6 6 7 7 9 9 9 10 10 9 9 9 9 8 8 9 9 9 9 9 9 9 8 8 8
3 5 3 2 2 2 2 1 1 3 2 4 4 4 5 5 5 4 3 3 2 2 3 3 4 6 7 6 7 7 8 9 9 9 9 8 8 8 8 8 8 8 8 8 8 8 7 7 6
2 2 2 1 1 1 2 2 1 2 4 2 4 5 6 6 5 4 4 3 2 3 3 3 4 5 6 7 6 6 6 7 7 8 8 8 6 6 6 6 6 7 6 6 6 6 6 6 5
2 2 1 1 1 1 1 1 2 3 2 1 4 5 5 5 4 3 3 3 3 2 2 2 3 4 5 6 5 5 5 6 6 7 7 7 6 4 5 5 6 6 6 6 5 5 5 4 5
2 1 1 1 1 1 2 1 1 4 1 3 4 4 4 4 4 3 3 3 2 2 2 2 3 3 5 4 4 4 5 5 6 6 6 6 6 5 4 4 5 5 5 5 4 4 4 4 3
1 1 2 1 1 2 2 3 4 3 3 3 3 3 2 2 2 3 4 4 3 3 3 3 3 3 4 4 4 4 5 5 5 5 6 6 6 5 4 4 4 4 5 5 4 5 4 3 4
2 1 2 3 1 2 4 7 4 3 5 4 3 2 2 1 2 2 2 3 3 3 3 3 3 3 3 3 4 4 5 5 4 4 5 5 6 6 5 3 3 4 4 4 3 3 2 3 3
1 2 3 3 1 1 4 6 3 2 5 4 3 3 2 2 1 1 1 2 3 4 4 3 3 3 2 2 3 4 5 4 4 4 5 4 5 5 4 3 3 4 4 3 2 2 2 2 3
5 4 3 4 2 1 3 6 5 2 3 4 4 3 3 3 4 2 1 2 3 3 4 4 3 3 3 2 3 3 4 4 4 3 4 4 4 4 4 3 3 4 3 2 2 2 2 1 2
3 3 3 3 2 1 4 7 7 4 3 5 5 4 4 4 3 1 1 2 3 3 3 3 3 3 3 2 2 2 1 1 1 2 3 3 3 3 3 3 3 2 1 1 1 1 2 2 2
2 2 2 2 2 0 3 7 7 5 5 6 7 7 6 4 2 1 2 2 3 3 3 3 3 3 3 2 1 1 1 1 1 2 3 3 3 2 2 2 1 1 1 1 1 1 1 1 2
3 4 3 2 3 2 3 6 4 3 3 4 5 5 5 6 5 4 3 3 3 4 4 4 3 3 3 3 2 2 2 2 1 1 1 2 2 1 1 1 1 1 1 0 0 0 1 0 1
4 3 3 2 0 3 1 5 6 4 4 5 6 5 6 5 5 4 4 4 4 4 4 4 4 3 3 3 4 3 2 1 1 1 1 2 2 2 1 1 0 1 0 1 1 0 0 1 1
3 1 2 1 2 2 1 3 8 2 5 7 6 5 5 5 5 5 5 5 4 4 4 4 4 3 3 3 4 4 2 1 0 0 0 1 1 2 2 1 0 0 0 1 1 1 1 1 2
4 4 4 4 3 3 5 5 7 5 6 4 4 4 4 5 4 4 3 3 3 3 3 4 4 3 3 3 3 3 3 2 1 0 1 1 1 1 2 2 1 1 1 2 2 3 3 2 2
4 4 2 2 2 6 2 4 9 6 5 5 6 5 4 4 4 3 3 3 3 3 4 4 4 3 3 3 3 3 3 3 3 2 2 1 1 2 2 2 2 2 2 3 2 3 3 3 3
4 6 6 5 5 5 2 7 7 5 4 3 3 3 3 3 3 3 4 4 4 4 4 4 4 4 4 4 3 3 3 2 2 3 2 3 3 3 2 2 2 2 3 3 2 2 3 3 4
5 3 3 4 1 3 6 7 8 3 3 2 2 2 3 3 3 3 3 3 4 4 4 5 5 4 4 4 3 3 3 2 2 2 2 2 2 2 2 2 2 3 3 3 3 3 3 3 4
3 6 4 4 3 5 6 5 5 4 5 3 3 3 4 2 2 2 2 3 3 3 3 3 4 4 3 3 3 3 3 2 2 2 3 3 3 2 3 3 3 3 3 3 3 3 3 3 4
4 4 4 4 4 4 4 7 5 6 5 5 5 5 4 4 3 3 3 2 2 1 2 3 3 3 3 3 3 2 2 2 2 2 3 3 3 3 3 3 3 3 3 3 3 3 3 4 4
3 6 7 5 4 4 4 7 4 4 4 4 5 4 3 3 2 2 2 2 2 2 2 3 3 3 3 3 3 3 2 2 2 3 3 3 3 3 3 3 3 4 3 3 4 4 4 4 4
Wind_Direction
350 1 51 52 56 54 239 249 230 251 172 32 66 101 126 130 156 171 334 28 54 109 132 137 126 122 119 112 107 103 100 96 96 95 91 88 86 84 81 81 81 81 79 78 79 81 81 81 80
351 17 51 59 94 149 261 244 222 212 161 106 57 74 81 68 24 28 347 352 63 98 113 124 122 117 116 112 107 104 101 98 93 93 91 88 86 85 80 80 79 78 76 76 78 78 80 81 81
18 47 77 82 133 184 221 232 214 76 67 98 78 56 94 96 3 317 310 354 75 82 95 111 117 114 112 110 107 104 101 98 96 95 91 88 87 87 83 79 81 79 77 77 79 78 76 76 77
61 48 58 89 207 222 222 246 170 120 52 57 108 81 54 6 327 310 356 67 95 79 90 105 115 113 110 109 108 105 102 97 95 94 91 89 87 87 85 82 80 80 77 78 77 77 73 73 73
56 78 77 139 237 252 252 255 176 149 103 52 108 116 7 360 21 56 71 85 96 79 78 98 116 115 112 111 108 105 103 99 95 93 91 90 88 85 84 83 81 78 77 75 73 73 71 70 70
63 77 124 216 234 263 276 264 143 123 130 110 122 127 218 21 46 55 72 75 83 82 73 84 109 112 114 111 109 106 103 99 96 93 90 89 87 87 85 85 83 78 77 74 72 70 68 66 64
114 118 175 196 218 253 245 102 138 145 152 201 158 137 215 15 62 76 76 78 74 71 71 69 82 95 104 107 105 104 100 96 94 92 88 86 85 82 80 79 79 78 76 73 70 67 66 64 62
127 123 167 198 203 230 235 75 86 137 176 81 133 154 206 204 114 92 78 75 72 63 60 60 66 73 81 92 97 98 94 91 89 86 83 79 76 74 71 65 66 71 72 70 69 68 65 62 62
99 114 202 206 196 208 149 106 20 54 104 63 50 170 184 130 118 97 80 71 71 63 50 52 62 66 73 80 84 84 83 82 80 77 76 74 70 67 64 59 59 58 64 65 63 63 63 59 56
108 183 215 206 186 179 164 153 162 96 72 61 28 55 97 122 126 119 115 117 106 85 58 49 60 65 72 76 75 74 74 74 74 75 76 74 71 66 64 56 51 50 54 56 54 54 56 54 48
153 194 202 225 198 160 159 177 161 148 215 215 202 173 142 139 140 138 139 136 136 116 84 59 64 69 73 72 73 71 73 72 70 71 75 76 71 63 58 52 45 44 45 45 44 46 45 49 47
164 245 210 237 194 160 177 162 164 197 225 216 180 159 155 158 165 169 166 152 122 104 92 78 72 73 74 76 73 71 69 69 66 67 73 75 69 60 54 52 46 45 44 43 42 43 39 39 39
195 241 257 218 136 144 134 193 196 239 255 122 127 143 163 169 173 173 157 138 119 118 103 85 76 79 80 79 74 72 69 70 69 68 68 73 72 64 57 51 50 47 46 46 40 36 32 30 26
197 214 281 295 202 192 166 253 182 247 180 124 134 153 164 164 165 156 151 152 152 149 132 111 98 82 82 83 81 79 76 75 70 64 64 71 73 72 66 56 50 44 44 47 46 38 33 22 23
91 47 329 279 198 202 136 292 233 220 143 141 147 153 155 166 164 174 179 177 176 163 139 129 126 93 89 87 85 82 79 76 68 62 63 67 71 74 72 66 54 41 43 50 51 40 38 27 19
70 86 268 288 194 200 163 249 253 197 151 165 180 179 184 190 191 196 182 170 166 154 142 138 130 111 94 85 86 85 80 76 66 64 66 65 69 74 70 67 54 41 50 52 54 41 26 17 4
55 221 234 292 292 177 189 244 254 193 172 192 205 207 211 232 249 231 190 165 164 158 148 141 128 119 112 91 82 85 83 73 65 63 61 59 64 70 69 65 50 48 54 49 44 40 34 10 356
207 212 228 246 291 176 222 252 270 251 199 211 215 220 224 230 242 232 192 169 153 143 139 134 119 114 113 98 82 74 70 61 58 59 56 58 58 63 68 64 51 52 57 45 40 32 28 13 348
164 180 228 253 292 230 239 260 267 253 224 227 227 223 227 234 246 218 170 148 131 124 132 142 138 136 124 116 113 102 97 71 52 41 40 50 56 60 67 60 60 59 64 46 46 50 35 22 8
158 195 243 294 359 281 279 276 266 240 227 222 219 220 219 221 234 205 152 148 155 158 161 157 157 152 146 146 139 125 140 138 68 32 35 36 43 53 64 71 67 60 61 36 38 55 53 21 27
222 208 216 243 344 10 332 301 271 258 240 244 226 217 213 209 211 204 180 180 175 176 176 172 164 151 146 123 99 75 59 49 48 17 355 3 10 26 46 69 87 69 102 140 342 77 96 197 325
234 227 202 206 118 290 5 284 273 253 270 251 243 227 223 219 209 202 193 190 192 194 179 172 169 158 148 137 141 143 155 189 224 256 283 338 357 359 359 14 92 122 115 209 238 219 206 187 242
184 109 142 165 164 296 268 235 280 274 258 252 241 229 223 219 210 205 203 204 200 187 176 174 167 165 161 158 164 164 178 199 193 305 329 335 339 338 340 332 332 254 238 237 232 233 229 212 220
133 75 59 51 74 263 230 205 273 239 233 242 234 227 224 221 218 217 213 191 185 172 165 165 168 178 172 169 175 176 184 185 174 239 278 317 323 330 333 316 289 265 255 247 240 232 226 226 230
107 106 41 352 329 251 220 216 250 251 242 227 223 233 232 215 206 205 193 185 189 182 178 173 176 187 184 181 188 193 196 196 200 211 226 262 291 289 278 293 277 272 259 251 240 233 236 230 228
173 154 168 202 229 272 256 236 254 262 269 254 234 234 230 222 208 206 203 197 199 198 190 182 186 196 193 192 199 195 192 198 211 216 219 232 245 258 272 272 268 263 257 257 242 241 241 242 237
148 180 163 138 139 271 264 279 297 271 274 251 238 231 238 238 230 224 219 208 203 203 204 198 195 198 198 199 198 201 197 202 217 228 224 234 248 264 270 282 276 269 259 250 244 243 244 243 244
142 143 119 148 186 250 277 268 257 262 247 243 234 237 245 247 249 252 239 225 216 211 211 202 196 200 200 195 199 211 213 216 220 224 237 242 247 249 255 267 269 268 267 257 243 246 246 249 256
138 144 149 154 174 188 260 267 232 232 229 225 238 244 250 255 253 256 258 241 218 207 200 202 198 194 200 204 205 209 219 222 221 228 239 245 250 247 247 253 262 261 259 253 246 251 253 250 261
183 178 161 177 221 194 213 268 280 249 260 239 251 261 264 260 260 261 257 238 213 211 213 212 210 208 211 207 207 211 214 215 224 238 242 244 249 255 250 249 259 262 261 254 249 256 257 249 256
Height
1496 1497 1498 1499 1504 1515 1517 1512 1508 1507 1507 1507 1507 1508 1509 1512 1515 1519 1515 1513 1515 1516 1518 1519 1521 1522 1523 1524 1525 1526 1527 1527 1527 1528 1529 1529 1530 1530 1530 1531 1531 1532 1533 1533 1534 1534 1534 1534 1534
1496 1497 1500 1500 1510 1521 1518 1510 1508 1506 1506 1506 1507 1508 1509 1511 1512 1513 1513 1514 1515 1516 1518 1519 1521 1522 1524 1525 1525 1526 1527 1528 1528 1529 1529 1530 1530 1531 1531 1531 1532 1532 1533 1533 1534 1534 1534 1534 1535
1496 1498 1500 1504 1513 1518 1512 1506 1506 1505 1506 1506 1507 1509 1510 1511 1512 1512 1513 1514 1515 1517 1518 1519 1521 1523 1524 1525 1526 1527 1527 1528 1529 1529 1530 1530 1531 1531 1531 1532 1532 1533 1533 1534 1534 1535 1535 1535 1535
1497 1499 1501 1509 1512 1510 1507 1505 1504 1505 1505 1506 1507 1510 1511 1512 1512 1513 1513 1514 1515 1517 1518 1520 1521 1523 1524 1525 1526 1527 1528 1528 1529 1530 1530 1531 1531 1531 1532 1532 1533 1533 1533 1534 1535 1535 1535 1535 1536
1497 1498 1506 1513 1511 1507 1505 1504 1504 1504 1505 1506 1508 1509 1510 1512 1511 1512 1513 1514 1515 1517 1518 1520 1521 1523 1524 1525 1526 1527 1528 1529 1529 1530 1531 1531 1532 1532 1532 1532 1533 1533 1534 1534 1535 1535 1535 1535 1536
1498 1500 1511 1514 1510 1506 1504 1504 1504 1505 1506 1506 1507 1509 1510 1511 1511 1512 1513 1514 1516 1517 1518 1520 1521 1523 1524 1525 1526 1527 1528 1528 1529 1530 1530 1531 1531 1532 1532 1532 1533 1533 1534 1534 1534 1535 1535 1535 1535
1498 1503 1509 1510 1509 1506 1504 1503 1504 1505 1506 1507 1507 1509 1510 1511 1511 1512 1513 1514 1515 1517 1518 1519 1521 1522 1523 1525 1525 1526 1527 1528 1529 1530 1530 1531 1531 1532 1532 1532 1533 1533 1533 1534 1534 1534 1535 1535 1535
1496 1502 1507 1508 1507 1505 1503 1503 1503 1504 1506 1507 1508 1508 1509 1510 1511 1512 1513 1514 1515 1516 1518 1519 1520 1522 1523 1524 1525 1526 1527 1528 1528 1529 1530 1530 1531 1531 1531 1532 1532 1533 1533 1533 1534 1534 1534 1534 1534
1496 1504 1506 1505 1504 1503 1502 1503 1504 1504 1505 1506 1506 1507 1508 1509 1510 1511 1512 1513 1515 1516 1517 1518 1519 1521 1522 1523 1525 1526 1526 1527 1528 1528 1529 1530 1530 1530 1531 1531 1532 1532 1533 1533 1533 1533 1533 1533 1533
1496 1503 1501 1499 1500 1500 1501 1502 1503 1504 1505 1505 1506 1506 1507 1508 1509 1510 1511 1512 1513 1515 1516 1517 1518 1520 1521 1522 1524 1525 1526 1526 1527 1527 1528 1529 1529 1530 1530 1531 1531 1531 1532 1532 1532 1532 1532 1532 1532
1496 1499 1498 1498 1498 1499 1500 1501 1502 1503 1504 1504 1504 1505 1506 1507 1508 1509 1510 1511 1513 1514 1515 1516 1518 1519 1520 1521 1523 1524 1525 1525 1526 1526 1527 1528 1528 1529 1529 1530 1530 1530 1531 1531 1531 1531 1531 1531 1531
1496 1497 1497 1497 1497 1498 1499 1500 1501 1501 1502 1503 1503 1504 1505 1506 1507 1508 1509 1510 1512 1513 1514 1516 1517 1518 1519 1520 1521 1523 1523 1524 1525 1526 1526 1527 1527 1528 1528 1528 1529 1529 1529 1529 1529 1530 1530 1530 1530
1496 1496 1496 1497 1497 1497 1498 1499 1500 1500 1500 1501 1502 1503 1504 1505 1506 1507 1508 1509 1510 1512 1513 1514 1515 1517 1518 1519 1520 1521 1522 1523 1524 1524 1525 1525 1526 1526 1527 1527 1527 1527 1527 1528 1528 1528 1528 1528 1528
1495 1496 1496 1496 1496 1497 1498 1498 1499 1498 1499 1500 1500 1501 1503 1504 1505 1506 1507 1507 1509 1510 1511 1513 1514 1515 1516 1518 1519 1520 1521 1521 1522 1523 1524 1524 1525 1525 1525 1525 1525 1525 1525 1526 1526 1526 1526 1526 1526
1495 1496 1496 1496 1496 1496 1497 1499 1498 1497 1498 1498 1499 1500 1501 1502 1503 1504 1505 1506 1507 1508 1509 1511 1513 1514 1515 1516 1517 1518 1519 1520 1521 1521 1522 1523 1523 1523 1523 1523 1523 1524 1524 1524 1524 1524 1524 1524 1524
1496 1498 1500 1496 1495 1496 1500 1499 1496 1496 1496 1497 1498 1498 1499 1500 1502 1503 1503 1504 1505 1506 1507 1509 1511 1512 1513 1514 1515 1517 1517 1518 1519 1520 1520 1521 1521 1521 1522 1522 1522 1522 1522 1522 1522 1521 1521 1521 1521
1500 1502 1500 1498 1496 1496 1498 1498 1495 1495 1495 1495 1496 1497 1497 1498 1499 1500 1501 1502 1503 1504 1505 1507 1508 1509 1511 1513 1514 1515 1516 1516 1517 1518 1519 1519 1519 1519 1520 1520 1520 1520 1519 1519 1519 1519 1519 1518 1518
1500 1501 1500 1500 1497 1497 1498 1497 1495 1494 1494 1494 1495 1495 1496 1496 1497 1498 1499 1500 1501 1502 1503 1504 1506 1507 1509 1511 1512 1513 1514 1515 1515 1516 1517 1517 1517 1517 1517 1517 1517 1517 1517 1517 1517 1516 1516 1516 1515
1497 1499 1500 1499 1498 1498 1498 1497 1494 1493 1493 1493 1493 1493 1493 1494 1495 1496 1497 1497 1498 1499 1501 1502 1504 1505 1507 1508 1509 1510 1511 1513 1513 1514 1514 1515 1515 1515 1515 1515 1515 1515 1514 1514 1514 1514 1513 1513 1512
1497 1499 1500 1499 1498 1498 1498 1496 1492 1490 1490 1489 1489 1490 1490 1492 1493 1494 1494 1495 1496 1497 1499 1500 1501 1503 1504 1506 1507 1509 1509 1510 1511 1511 1512 1512 1513 1513 1513 1513 1513 1512 1512 1512 1512 1511 1511 1510 1510
1498 1500 1501 1501 1499 1499 1499 1495 1491 1487 1487 1487 1486 1487 1488 1489 1490 1491 1492 1493 1494 1495 1497 1498 1499 1501 1502 1504 1505 1506 1507 1507 1507 1508 1509 1510 1510 1510 1510 1510 1510 1510 1509 1509 1509 1509 1508 1508 1508
1498 1498 1499 1499 1502 1505 1503 1502 1490 1487 1486 1484 1483 1484 1484 1486 1487 1488 1490 1491 1492 1494 1495 1496 1498 1499 1500 1501 1502 1503 1504 1504 1504 1506 1506 1507 1507 1508 1508 1507 1507 1507 1506 1506 1506 1506 1506 1505 1505
1497 1497 1499 1500 1504 1507 1505 1505 1491 1487 1484 1481 1480 1480 1481 1483 1485 1486 1487 1489 1490 1491 1493 1494 1495 1496 1497 1498 1499 1500 1501 1502 1503 1504 1504 1504 1504 1504 1504 1504 1504 1504 1503 1503 1503 1503 1503 1502 1502
1496 1499 1502 1506 1508 1509 1504 1504 1492 1486 1479 1478 1478 1478 1479 1480 1482 1483 1485 1486 1487 1489 1490 1491 1492 1493 1494 1495 1496 1497 1498 1499 1499 1500 1500 1500 1501 1501 1501 1501 1501 1501 1500 1500 1499 1499 1499 1498 1498
1496 1503 1510 1510 1515 1509 1503 1502 1490 1479 1476 1475 1475 1476 1477 1478 1480 1481 1482 1483 1485 1486 1487 1488 1489 1490 1491 1492 1493 1494 1495 1496 1496 1496 1496 1497 1497 1497 1497 1497 1497 1497 1497 1496 1496 1495 1495 1494 1494
1496 1499 1507 1509 1511 1508 1504 1500 1484 1476 1474 1473 1474 1475 1476 1477 1478 1478 1479 1481 1482 1483 1484 1485 1486 1487 1488 1488 1489 1490 1492 1492 1493 1493 1493 1493 1493 1494 1494 1494 1493 1493 1493 1492 1492 1491 1491 1490 1489
1496 1500 1501 1510 1515 1512 1502 1496 1483 1474 1473 1473 1473 1473 1474 1475 1476 1477 1478 1479 1480 1480 1481 1482 1483 1484 1485 1485 1486 1487 1488 1489 1489 1490 1490 1490 1490 1490 1490 1490 1489 1489 1489 1488 1487 1486 1486 1486 1485
1493 1497 1504 1507 1507 1504 1498 1496 1485 1474 1472 1472 1472 1472 1472 1473 1474 1475 1476 1477 1477 1478 1479 1480 1481 1481 1482 1482 1483 1484 1485 1485 1486 1486 1486 1486 1486 1486 1486 1485 1485 1485 1484 1483 1482 1482 1481 1481 1480
1495 1498 1500 1505 1506 1506 1502 1489 1475 1472 1470 1471 1470 1470 1471 1471 1471 1472 1473 1474 1475 1476 1477 1477 1478 1478 1479 1479 1480 1481 1481 1482 1482 1482 1482 1482 1482 1482 1481 1481 1481 1480 1480 1479 1478 1477 1477 1476 1475
1492 1493 1498 1501 1504 1510 1508 1490 1471 1470 1469 1469 1469 1469 1469 1470 1470 1471 1471 1472 1472 1473 1474 1474 1475 1475 1476 1476 1477 1478 1478 1478 1478 1479 1479 1478 1478 1478 1478 1477 1477 1476 1475 1474 1473 1472 1472 1471 1470